• In Uzbekistan
  • List of Countries
  • For 7 days
  • Water Temperature
  • Satellite Maps
  • Weather Map
  • Weather Widgets
  • user-avatar
    Login

    Hourly Weather Vreed en Hoop

    Today, 16 December, Saturday

    Time Temperature Precipitation Wind Pressure Humidity
    00:00 +25°C° 0.1 mm 2 mps 759 mmHg 93%
    01:00 +25°C° 0.1 mm 2 mps 759 mmHg 93%
    02:00 +25°C° 0.1 mm 2 mps 758 mmHg 93%
    03:00 +25°C° 0.1 mm 2 mps 758 mmHg 94%
    04:00 +25°C° 0.1 mm 2 mps 759 mmHg 94%
    05:00 +24°C° 0.1 mm 2 mps 759 mmHg 94%
    06:00 +26°C° 0.1 mm 2 mps 759 mmHg 91%
    07:00 +27°C° 0.1 mm 2 mps 759 mmHg 87%
    08:00 +28°C° 0.1 mm 2 mps 760 mmHg 84%
    09:00 +29°C° 0.1 mm 2 mps 760 mmHg 76%
    10:00 +31°C° 0.1 mm 3 mps 760 mmHg 67%
    11:00 +33°C° 0.1 mm 3 mps 760 mmHg 59%
    12:00 +33°C° 0.1 mm 3 mps 759 mmHg 58%
    13:00 +33°C° 0.1 mm 3 mps 758 mmHg 57%
    14:00 +33°C° 0.1 mm 3 mps 758 mmHg 56%
    15:00 +31°C° 0 mm 3 mps 757 mmHg 62%
    16:00 +30°C° 0 mm 3 mps 757 mmHg 67%
    17:00 +29°C° 0 mm 3 mps 757 mmHg 72%
    18:00 +28°C° 0 mm 3 mps 757 mmHg 77%
    19:00 +27°C° 0 mm 3 mps 757 mmHg 82%
    20:00 +26°C° 0 mm 3 mps 758 mmHg 87%
    21:00 +26°C° 0 mm 2 mps 758 mmHg 89%
    22:00 +25°C° 0 mm 2 mps 758 mmHg 91%
    23:00 +25°C° 0 mm 2 mps 758 mmHg 92%

    Tomorrow, 17 December, Sunday

    Time Temperature Precipitation Wind Pressure Humidity
    00:00 +25°C° 0.2 mm 2 mps 758 mmHg 93%
    01:00 +25°C° 0.2 mm 2 mps 758 mmHg 94%
    02:00 +25°C° 0.2 mm 2 mps 757 mmHg 95%
    03:00 +25°C° 0.4 mm 2 mps 757 mmHg 95%
    04:00 +25°C° 0.4 mm 2 mps 757 mmHg 96%
    05:00 +24°C° 0.4 mm 2 mps 758 mmHg 96%
    06:00 +25°C° 0.4 mm 2 mps 758 mmHg 94%
    07:00 +26°C° 0.4 mm 2 mps 759 mmHg 92%
    08:00 +27°C° 0.4 mm 2 mps 759 mmHg 90%
    09:00 +28°C° 0.3 mm 2 mps 760 mmHg 83%
    10:00 +29°C° 0.3 mm 2 mps 760 mmHg 77%
    11:00 +31°C° 0.3 mm 3 mps 760 mmHg 71%
    12:00 +31°C° 0.5 mm 3 mps 759 mmHg 70%
    13:00 +31°C° 0.5 mm 3 mps 758 mmHg 69%
    14:00 +31°C° 0.5 mm 3 mps 758 mmHg 69%
    15:00 +30°C° 0 mm 3 mps 757 mmHg 71%
    16:00 +30°C° 0 mm 3 mps 757 mmHg 72%
    17:00 +29°C° 0 mm 3 mps 757 mmHg 74%
    18:00 +28°C° 0 mm 3 mps 757 mmHg 79%
    19:00 +27°C° 0 mm 3 mps 758 mmHg 84%
    20:00 +26°C° 0 mm 3 mps 758 mmHg 89%
    21:00 +26°C° 0 mm 3 mps 759 mmHg 90%
    22:00 +26°C° 0 mm 3 mps 759 mmHg 92%
    23:00 +25°C° 0 mm 3 mps 759 mmHg 93%

    Day after tomorrow, 18 December, Monday

    Time Temperature Precipitation Wind Pressure Humidity
    00:00 +25°C° 0 mm 2 mps 759 mmHg 93%
    01:00 +25°C° 0 mm 2 mps 758 mmHg 93%
    02:00 +25°C° 0 mm 2 mps 758 mmHg 93%
    03:00 +25°C° 0 mm 2 mps 758 mmHg 93%
    04:00 +24°C° 0 mm 2 mps 758 mmHg 94%
    05:00 +24°C° 0 mm 2 mps 758 mmHg 94%
    06:00 +26°C° 0 mm 2 mps 758 mmHg 88%
    07:00 +27°C° 0 mm 2 mps 759 mmHg 82%
    08:00 +29°C° 0 mm 2 mps 760 mmHg 76%
    09:00 +30°C° 0 mm 2 mps 760 mmHg 68%
    10:00 +31°C° 0 mm 2 mps 760 mmHg 61%
    11:00 +34°C° 0 mm 2 mps 760 mmHg 53%
    12:00 +34°C° 0 mm 3 mps 759 mmHg 52%
    13:00 +34°C° 0 mm 3 mps 758 mmHg 51%
    14:00 +34°C° 0 mm 3 mps 757 mmHg 50%
    15:00 +33°C° 0 mm 3 mps 757 mmHg 57%
    16:00 +30°C° 0 mm 3 mps 757 mmHg 64%
    17:00 +29°C° 0 mm 3 mps 757 mmHg 71%
    18:00 +28°C° 0 mm 3 mps 757 mmHg 77%
    19:00 +27°C° 0 mm 3 mps 758 mmHg 83%
    20:00 +26°C° 0 mm 3 mps 759 mmHg 90%
    21:00 +26°C° 0 mm 3 mps 759 mmHg 91%
    22:00 +26°C° 0 mm 3 mps 759 mmHg 92%
    23:00 +26°C° 0 mm 3 mps 759 mmHg 93%

    19 December, Tuesday

    Time Temperature Precipitation Wind Pressure Humidity
    00:00 +25°C° 0.1 mm 2 mps 759 mmHg 93%
    01:00 +25°C° 0.1 mm 2 mps 759 mmHg 93%
    02:00 +25°C° 0.1 mm 2 mps 758 mmHg 94%
    03:00 +25°C° 0.2 mm 2 mps 758 mmHg 94%
    04:00 +25°C° 0.2 mm 2 mps 758 mmHg 95%
    05:00 +25°C° 0.2 mm 2 mps 758 mmHg 95%
    06:00 +26°C° 0.5 mm 2 mps 759 mmHg 89%
    07:00 +27°C° 0.5 mm 2 mps 759 mmHg 84%
    08:00 +29°C° 0.5 mm 2 mps 760 mmHg 78%
    09:00 +30°C° 0.5 mm 2 mps 760 mmHg 72%
    10:00 +31°C° 0.5 mm 3 mps 760 mmHg 66%
    11:00 +33°C° 0.5 mm 3 mps 760 mmHg 60%
    12:00 +33°C° 0.1 mm 3 mps 759 mmHg 59%
    13:00 +34°C° 0.1 mm 3 mps 758 mmHg 57%
    14:00 +34°C° 0.1 mm 4 mps 757 mmHg 56%
    15:00 +33°C° 0 mm 4 mps 757 mmHg 62%
    16:00 +32°C° 0 mm 4 mps 757 mmHg 67%
    17:00 +29°C° 0 mm 4 mps 757 mmHg 73%
    18:00 +28°C° 0 mm 3 mps 757 mmHg 79%
    19:00 +27°C° 0 mm 3 mps 758 mmHg 85%
    20:00 +26°C° 0 mm 3 mps 758 mmHg 91%
    21:00 +26°C° 0.1 mm 3 mps 758 mmHg 92%
    22:00 +26°C° 0.1 mm 3 mps 758 mmHg 94%
    23:00 +26°C° 0.1 mm 3 mps 759 mmHg 95%

    20 December, Wednesday

    Time Temperature Precipitation Wind Pressure Humidity
    00:00 +25°C° 0.4 mm 3 mps 758 mmHg 95%
    01:00 +25°C° 0.4 mm 3 mps 758 mmHg 96%
    02:00 +25°C° 0.4 mm 2 mps 758 mmHg 96%
    03:00 +25°C° 1.2 mm 2 mps 758 mmHg 96%
    04:00 +25°C° 1.2 mm 2 mps 758 mmHg 97%
    05:00 +25°C° 1.2 mm 2 mps 758 mmHg 97%
    06:00 +26°C° 0.7 mm 2 mps 758 mmHg 94%
    07:00 +27°C° 0.7 mm 2 mps 759 mmHg 91%
    08:00 +28°C° 0.7 mm 2 mps 760 mmHg 88%
    09:00 +29°C° 0.5 mm 2 mps 759 mmHg 83%
    10:00 +30°C° 0.5 mm 2 mps 759 mmHg 77%
    11:00 +31°C° 0.5 mm 2 mps 759 mmHg 72%
    12:00 +30°C° 0.5 mm 3 mps 758 mmHg 72%
    13:00 +30°C° 0.5 mm 3 mps 757 mmHg 73%
    14:00 +30°C° 0.5 mm 3 mps 757 mmHg 74%
    15:00 +30°C° 0 mm 3 mps 756 mmHg 74%
    16:00 +30°C° 0 mm 3 mps 756 mmHg 75%
    17:00 +29°C° 0 mm 3 mps 756 mmHg 76%
    18:00 +28°C° 0 mm 3 mps 757 mmHg 80%
    19:00 +27°C° 0 mm 3 mps 757 mmHg 85%
    20:00 +26°C° 0 mm 3 mps 758 mmHg 89%
    21:00 +26°C° 0.1 mm 3 mps 758 mmHg 90%
    22:00 +26°C° 0.1 mm 3 mps 758 mmHg 91%
    23:00 +26°C° 0.1 mm 3 mps 758 mmHg 92%

    21 December, Thursday

    Time Temperature Precipitation Wind Pressure Humidity
    00:00 +25°C° 0.8 mm 3 mps 757 mmHg 93%
    01:00 +25°C° 0.8 mm 3 mps 757 mmHg 95%
    02:00 +25°C° 0.8 mm 3 mps 757 mmHg 96%
    03:00 +25°C° 1.1 mm 3 mps 757 mmHg 97%
    04:00 +25°C° 1.1 mm 2 mps 757 mmHg 97%
    05:00 +24°C° 1.1 mm 2 mps 757 mmHg 97%
    06:00 +25°C° 1.4 mm 2 mps 758 mmHg 95%
    07:00 +26°C° 1.4 mm 3 mps 758 mmHg 93%
    08:00 +27°C° 1.4 mm 3 mps 759 mmHg 92%
    09:00 +28°C° 1.2 mm 3 mps 759 mmHg 89%
    10:00 +28°C° 1.2 mm 3 mps 759 mmHg 86%
    11:00 +29°C° 1.2 mm 3 mps 759 mmHg 82%
    12:00 +29°C° 0.7 mm 3 mps 758 mmHg 81%
    13:00 +30°C° 0.7 mm 3 mps 758 mmHg 80%
    14:00 +30°C° 0.7 mm 3 mps 757 mmHg 78%
    15:00 +29°C° 0.2 mm 3 mps 757 mmHg 80%
    16:00 +29°C° 0.2 mm 3 mps 757 mmHg 82%
    17:00 +28°C° 0.2 mm 3 mps 756 mmHg 84%
    18:00 +27°C° 0 mm 3 mps 757 mmHg 87%
    19:00 +27°C° 0 mm 3 mps 757 mmHg 90%
    20:00 +26°C° 0 mm 3 mps 758 mmHg 93%
    21:00 +26°C° 0 mm 3 mps 758 mmHg 93%
    22:00 +26°C° 0 mm 3 mps 758 mmHg 94%
    23:00 +26°C° 0 mm 3 mps 758 mmHg 94%
    Show more